{"data":{"norad_id":63287,"intl_designator":"2025-053Y","name":"STARLINK-33680","alt_names":[],"object_type":"PAYLOAD","status":"ACTIVE","operator":null,"country":"US","launch_date":"2025-03-15","launch_site_code":"AFETR","launch_vehicle":null,"mission":null,"orbit_class":"UNKNOWN","rcs_meters":null,"size_class":null,"mass_kg":null,"dimensions":null,"purposes":["comms"],"wikipedia_slug":null,"has_3d_model":false,"image_url":null,"decayed_at":null,"tle_current":{"epoch":"2026-05-25T02:28:51.494592Z","epoch_age_seconds":63426,"freshness":"FRESH","line1":"1 63287U 25053Y   26145.10337378  .00013655  00000+0  50482-3 0  9992","line2":"2 63287  42.9984 169.9095 0001370 272.5631  87.5064 15.27578577 67939","mean_motion":15.27578577,"eccentricity":0.000137,"inclination_deg":42.9984,"raan_deg":169.9095,"arg_perigee_deg":272.5631,"mean_anomaly_deg":87.5064,"bstar":0.00050482,"rev_number":6793,"period_min":94.266836526865,"perigee_km":482.11337393797,"apogee_km":483.99334009579,"semimajor_km":6861.1903570169,"source":"CELESTRAK","updated_at":"2026-05-25T13:38:19.928961Z"}}}